[[{"header":{"parameterUnit":"m.s-1","parameterCategory":1,"la1":30.2991,"la2":30.254,"lo1":-89.0895,"lo2":-89.0444,"dy":0.0017,"dx":0.0017,"nx":28,"ny":28,"refTime":"2023-07-31T21:00:00:Z","depth":0,"parameterNumber":2,"parameterNumberName":"U-component_of_WINDS"},"data":[0,0,0,0,0,0,0,0,0,0,0,0,0,0,0,0,0,0,0,0,0,0,0,0,0,0,0,0,0,0,0,0,0,0,0,0,0,0,0,0,0,0,0,0,0,0,0,0,0,0,0,0,0,0,0,0,0,0,0.1962,0.1962,0,0.1994,0.1994,0.1995,0.2005,0.2005,0.2005,0.2005,0.2039,0.204,0.2041,0,0,0,0,0,0,0,0,0,0,0,0,0,0.191,0.1911,0.1962,0.1962,0.1962,0.1994,0.1994,0.1995,0.2005,0.2005,0.2005,0.2005,0.2038,0.204,0.2041,0,0,0,0,0,0,0,0,0,0,0,0,0,0.1936,0.1911,0.1962,0.1971,0.1973,0.1994,0.1994,0.1995,0.2005,0.2005,0.2005,0.2005,0.2038,0.2039,0.2041,0.2055,0,0,0.2046,0.2046,0,0,0,0,0,0,0,0,0.1935,0.1938,0.197,0.1971,0.1972,0.1995,0.1989,0.2015,0.2005,0.1993,0.2005,0.2004,0.2024,0.2027,0.2034,0.2057,0.2058,0.2046,0.2047,0.2047,0.2048,0,0,0,0,0,0,0,0.1933,0.1937,0.1974,0.197,0.1972,0.1975,0.1978,0.1994,0.201,0.1994,0.1995,0.1998,0.2025,0.2032,0.2035,0.2059,0.2046,0.2047,0.2048,0.2049,0.2095,0.2096,0,0,0,0,0,0,0.1929,0.1935,0.1973,0.1975,0.1953,0.1976,0.198,0.1988,0.2009,0.2012,0.1998,0.1999,0.203,0.2033,0.2036,0.2054,0.2047,0.2049,0.205,0.2095,0.2095,0.2096,0,0,0,0,0,0,0.1928,0.1933,0.1972,0.1956,0.1961,0.1977,0.1986,0.1989,0.1996,0.2013,0.2016,0.2003,0.203,0.2034,0.205,0.2055,0.205,0.2051,0.2095,0.2095,0.2096,0.209,0,0,0,0,0,0,0.1927,0.1932,0.1937,0.1956,0.1962,0.1986,0.1987,0.199,0.1998,0.1999,0.2018,0.202,0.203,0.2048,0.2052,0.2057,0.2052,0.2094,0.2095,0.2095,0.209,0.209,0.209,0,0,0,0,0,0.1925,0.1935,0.1938,0.1942,0.1969,0.1986,0.1989,0.2,0.1999,0.2004,0.2015,0.202,0.2054,0.2049,0.2054,0.206,0.2094,0.2095,0.2095,0.209,0.209,0.209,0,0,0,0,0,0,0.1917,0.1937,0.1941,0.1957,0.1969,0.1988,0.1995,0.2,0.2013,0.2013,0.2025,0.203,0.2045,0.2054,0.2049,0.2075,0.2074,0.2076,0.2068,0.2069,0.2069,0.2067,0.2054,0,0,0,0,0,0.1917,0.1929,0.1946,0.1959,0.1965,0.1979,0.1987,0.1994,0.2007,0.2013,0.2025,0.2039,0.2052,0.2061,0.2075,0.2091,0.2096,0.2098,0.2098,0.2098,0.2099,0.2109,0.211,0.2098,0.2098,0.2098,0,0,0.1917,0.193,0.1937,0.1957,0.1968,0.1981,0.1983,0.1996,0.2006,0.2015,0.2031,0.2041,0.2057,0.2073,0.2081,0.2081,0.2104,0.2099,0.2099,0.21,0.211,0.2111,0.2112,0.2098,0.2098,0.2098,0,0,0.1924,0.1935,0.1946,0.1957,0.1973,0.1982,0.1985,0.2003,0.2009,0.2026,0.2033,0.2045,0.2068,0.2079,0.2088,0.21,0.2104,0.2104,0.2106,0.2115,0.2116,0.2117,0.2121,0.2122,0.2105,0.2105,0.2105,0,0.1922,0.1941,0.1952,0.1965,0.1974,0.1982,0.1994,0.2004,0.2024,0.203,0.203,0.206,0.2071,0.2091,0.2094,0.2101,0.2104,0.2102,0.2115,0.2116,0.2117,0.2121,0.2122,0.2105,0.2105,0.2105,0.2105,0,0.1939,0.1952,0.1959,0.1978,0.1988,0.2,0.2013,0.2022,0.2028,0.2037,0.2054,0.2068,0.2085,0.209,0.2096,0.2111,0.211,0.2112,0.2112,0.2118,0.2122,0.2123,0.2105,0.2105,0.2105,0.2105,0,0,0.1941,0.1965,0.1968,0.1977,0.1995,0.2006,0.2019,0.2035,0.2042,0.2056,0.2067,0.2087,0.2089,0.2099,0.2107,0.2115,0.2123,0.2116,0.2117,0.2117,0.214,0.2138,0.214,0.2127,0.2127,0.2127,0.2139,0,0.195,0.1973,0.1983,0.2002,0.2014,0.2023,0.2034,0.2047,0.2056,0.2069,0.2079,0.2093,0.2095,0.2101,0.2109,0.212,0.2128,0.212,0.2137,0.2138,0.2133,0.2142,0.214,0.215,0.214,0.2141,0.2141,0,0.1964,0.1977,0.1997,0.2014,0.202,0.203,0.2045,0.2057,0.2072,0.2078,0.2089,0.2097,0.2111,0.211,0.213,0.2124,0.2132,0.2139,0.2139,0.2141,0.2139,0.2144,0.2153,0.2155,0.2143,0.2143,0.2143,0,0.1963,0.1986,0.2001,0.2008,0.2029,0.2036,0.2045,0.2059,0.2069,0.2083,0.2089,0.2104,0.2113,0.2125,0.2136,0.2134,0.2156,0.2155,0.2161,0.2161,0.2165,0.2165,0.2176,0.2171,0.2171,0.217,0.217,0,0.1972,0.1984,0.2001,0.201,0.2024,0.2036,0.2049,0.2059,0.2072,0.2083,0.2092,0.2103,0.2117,0.213,0.2139,0.2154,0.2158,0.2164,0.2166,0.2163,0.2162,0.2168,0.2168,0.2171,0.2171,0.2171,0.2171,0,0.1974,0.1986,0.2003,0.2021,0.2026,0.2035,0.2051,0.206,0.207,0.2084,0.2088,0.2104,0.2119,0.2132,0.2152,0.2158,0.2174,0.2177,0.2169,0.217,0.2176,0.2175,0.2191,0.2193,0.2186,0.2186,0.2187,0,0.1979,0.1988,0.2007,0.2015,0.2024,0.2037,0.2046,0.2059,0.2068,0.2086,0.2094,0.2109,0.2123,0.2147,0.216,0.2176,0.2179,0.2183,0.2181,0.2178,0.2179,0.2178,0.2179,0.2184,0.2184,0.2184,0.2184,0,0.1986,0.1992,0.2005,0.202,0.2031,0.2043,0.2056,0.2062,0.2077,0.2087,0.2103,0.2113,0.2134,0.215,0.2167,0.2177,0.2183,0.2184,0.2186,0.2183,0.2178,0.2181,0.2169,0.2184,0.2184,0.2184,0.2184,0.2184,0.1989,0.1998,0.2013,0.2027,0.2038,0.205,0.206,0.2071,0.2084,0.2102,0.2108,0.2124,0.2139,0.2163,0.2173,0.2186,0.2186,0.219,0.219,0.2191,0.2191,0.2176,0.2189,0.2189,0.2189,0.2189,0.2189,0,0.1997,0.2007,0.202,0.2038,0.2049,0.2054,0.2068,0.2078,0.2092,0.2105,0.2118,0.2136,0.2152,0.2166,0.2183,0.219,0.2193,0.2194,0.2193,0.2196,0.2189,0.2185,0.2191,0.2191,0.2191,0.2191,0.2191,0.2191,0.2003,0.2017,0.2025,0.2045,0.2056,0.2071,0.2079,0.209,0.2101,0.2121,0.2134,0.2143,0.2157,0.2174,0.2189,0.2193,0.2198,0.2198,0.2203,0.2196,0.2196,0.2196,0.2192,0.2199,0.2199,0.2209,0.2209,0.2209]},{"header":{"parameterUnit":"m.s-1","parameterCategory":1,"la1":30.2991,"la2":30.254,"lo1":-89.0895,"lo2":-89.0444,"dy":0.0017,"dx":0.0017,"nx":28,"ny":28,"refTime":"2023-07-31T21:00:00:Z","depth":0,"parameterNumber":3,"parameterNumberName":"V-component_of_WINDS"},"data":[0,0,0,0,0,0,0,0,0,0,0,0,0,0,0,0,0,0,0,0,0,0,0,0,0,0,0,0,0,0,0,0,0,0,0,0,0,0,0,0,0,0,0,0,0,0,0,0,0,0,0,0,0,0,0,0,0,0,-0.2624,-0.2624,0,-0.2653,-0.2654,-0.2654,-0.2675,-0.2675,-0.2675,-0.2675,-0.2704,-0.2705,-0.2706,0,0,0,0,0,0,0,0,0,0,0,0,0,-0.2584,-0.2585,-0.2624,-0.2624,-0.2624,-0.2653,-0.2654,-0.2654,-0.2675,-0.2675,-0.2675,-0.2675,-0.2704,-0.2705,-0.2706,0,0,0,0,0,0,0,0,0,0,0,0,0,-0.2606,-0.2585,-0.2623,-0.2638,-0.264,-0.2653,-0.2654,-0.2654,-0.2675,-0.2675,-0.2675,-0.2675,-0.2704,-0.2705,-0.2706,-0.2706,0,0,-0.2709,-0.2709,0,0,0,0,0,0,0,0,-0.2605,-0.2608,-0.2636,-0.2637,-0.2639,-0.2661,-0.265,-0.2672,-0.2675,-0.2661,-0.2675,-0.2676,-0.2689,-0.2692,-0.2697,-0.2708,-0.2709,-0.2709,-0.2709,-0.271,-0.271,0,0,0,0,0,0,0,-0.2604,-0.2607,-0.2635,-0.2636,-0.2638,-0.2643,-0.2647,-0.2655,-0.2674,-0.2663,-0.2664,-0.2667,-0.269,-0.2696,-0.2697,-0.2709,-0.2709,-0.2709,-0.271,-0.271,-0.2724,-0.2724,0,0,0,0,0,0,-0.26,-0.2605,-0.2634,-0.2636,-0.2622,-0.2644,-0.2647,-0.2653,-0.2674,-0.2677,-0.2667,-0.2668,-0.2694,-0.2696,-0.2699,-0.2702,-0.271,-0.271,-0.2711,-0.2724,-0.2724,-0.2724,0,0,0,0,0,0,-0.2599,-0.2602,-0.2633,-0.2621,-0.2625,-0.2644,-0.2651,-0.2654,-0.2659,-0.2677,-0.2681,-0.2669,-0.2694,-0.2697,-0.2705,-0.2703,-0.2711,-0.2712,-0.2724,-0.2724,-0.2724,-0.2707,0,0,0,0,0,0,-0.2598,-0.2602,-0.2602,-0.2621,-0.2626,-0.2639,-0.265,-0.2654,-0.2661,-0.2662,-0.268,-0.2683,-0.2695,-0.2703,-0.2706,-0.2704,-0.2712,-0.2724,-0.2724,-0.2724,-0.2708,-0.2706,-0.2705,0,0,0,0,0,-0.2596,-0.2596,-0.2602,-0.2606,-0.2627,-0.2639,-0.2641,-0.2655,-0.266,-0.2661,-0.2673,-0.2682,-0.2703,-0.2704,-0.2707,-0.2706,-0.2725,-0.2724,-0.2724,-0.2709,-0.2707,-0.2705,0,0,0,0,0,0,-0.2576,-0.2599,-0.2606,-0.2612,-0.2623,-0.2642,-0.2643,-0.2653,-0.2663,-0.2664,-0.268,-0.2684,-0.269,-0.2698,-0.2699,-0.2708,-0.2715,-0.2715,-0.2702,-0.2701,-0.2699,-0.2697,-0.2713,0,0,0,0,0,-0.2572,-0.258,-0.2599,-0.2602,-0.2608,-0.2625,-0.263,-0.264,-0.2652,-0.2657,-0.267,-0.2681,-0.269,-0.2696,-0.2705,-0.2709,-0.2714,-0.271,-0.2708,-0.2707,-0.2707,-0.2711,-0.271,-0.2722,-0.2722,-0.2722,0,0,-0.2564,-0.2578,-0.2581,-0.2599,-0.2609,-0.2617,-0.2629,-0.2636,-0.2642,-0.2658,-0.2667,-0.2676,-0.269,-0.2696,-0.2699,-0.2703,-0.2705,-0.2706,-0.2705,-0.2706,-0.271,-0.2709,-0.2708,-0.2722,-0.2722,-0.2722,0,0,-0.2554,-0.2565,-0.2569,-0.2579,-0.2595,-0.2606,-0.2607,-0.2625,-0.2632,-0.2641,-0.2654,-0.2661,-0.2676,-0.2685,-0.2692,-0.2687,-0.2696,-0.2689,-0.2682,-0.2685,-0.2684,-0.2683,-0.2682,-0.2682,-0.2689,-0.2689,-0.2689,0,-0.2542,-0.2555,-0.257,-0.2577,-0.2585,-0.2601,-0.2606,-0.2614,-0.2632,-0.2636,-0.2641,-0.2661,-0.2671,-0.268,-0.2679,-0.2684,-0.2686,-0.2688,-0.2683,-0.2683,-0.2682,-0.2681,-0.2681,-0.2688,-0.2688,-0.2688,-0.2688,0,-0.254,-0.2549,-0.255,-0.2568,-0.2575,-0.2581,-0.2597,-0.2603,-0.2612,-0.2623,-0.2632,-0.2645,-0.2658,-0.2661,-0.2669,-0.2671,-0.2673,-0.268,-0.2688,-0.268,-0.2679,-0.2679,-0.2687,-0.2687,-0.2688,-0.2688,0,0,-0.2518,-0.2545,-0.2545,-0.2554,-0.2572,-0.2579,-0.2586,-0.2599,-0.2604,-0.2615,-0.2622,-0.2634,-0.2641,-0.2649,-0.2659,-0.2662,-0.2658,-0.2668,-0.2669,-0.2667,-0.2662,-0.2657,-0.2657,-0.2664,-0.2664,-0.2664,-0.2661,0,-0.2512,-0.2525,-0.254,-0.2548,-0.2557,-0.2572,-0.2578,-0.259,-0.26,-0.2609,-0.262,-0.2629,-0.2637,-0.2642,-0.2645,-0.2657,-0.2657,-0.2658,-0.267,-0.2671,-0.2667,-0.2656,-0.2651,-0.2648,-0.2661,-0.2661,-0.2661,0,-0.2506,-0.2518,-0.2528,-0.2546,-0.255,-0.2555,-0.2569,-0.2577,-0.2591,-0.2598,-0.2607,-0.2618,-0.2626,-0.2632,-0.2644,-0.2644,-0.265,-0.2657,-0.2657,-0.2659,-0.2666,-0.2659,-0.2647,-0.2647,-0.266,-0.266,-0.266,0,-0.2491,-0.2509,-0.2517,-0.2524,-0.2545,-0.2549,-0.2558,-0.2572,-0.2579,-0.2591,-0.2596,-0.2608,-0.2615,-0.2624,-0.2638,-0.2641,-0.2648,-0.2655,-0.2655,-0.2655,-0.2656,-0.2656,-0.2646,-0.2659,-0.2659,-0.2659,-0.2659,0,-0.2483,-0.2488,-0.2511,-0.2516,-0.2522,-0.2539,-0.2545,-0.2555,-0.2568,-0.2575,-0.2589,-0.2596,-0.2613,-0.2622,-0.2633,-0.2641,-0.2644,-0.265,-0.2653,-0.265,-0.2649,-0.2654,-0.2655,-0.2659,-0.2659,-0.2659,-0.2659,0,-0.2466,-0.2482,-0.2492,-0.2512,-0.2517,-0.2521,-0.2538,-0.2544,-0.2555,-0.2565,-0.2568,-0.2585,-0.2596,-0.2611,-0.2627,-0.2634,-0.2641,-0.2645,-0.2637,-0.2639,-0.2638,-0.2638,-0.2631,-0.2631,-0.2643,-0.2643,-0.2643,0,-0.2461,-0.2466,-0.2486,-0.2493,-0.2502,-0.2511,-0.2519,-0.2535,-0.2543,-0.2559,-0.2563,-0.2575,-0.2586,-0.2603,-0.2617,-0.2629,-0.2634,-0.2631,-0.2636,-0.2633,-0.2635,-0.2635,-0.2636,-0.263,-0.263,-0.263,-0.263,0,-0.2449,-0.2457,-0.2468,-0.2481,-0.249,-0.2502,-0.2514,-0.2518,-0.2537,-0.2544,-0.2556,-0.2565,-0.2581,-0.2593,-0.2607,-0.2616,-0.2626,-0.2628,-0.2629,-0.2625,-0.262,-0.2624,-0.2634,-0.2628,-0.2628,-0.2628,-0.2628,-0.2628,-0.2439,-0.2444,-0.246,-0.2472,-0.2483,-0.2494,-0.25,-0.2513,-0.2523,-0.2538,-0.2547,-0.2559,-0.2573,-0.2593,-0.2602,-0.2611,-0.2615,-0.2616,-0.2616,-0.2616,-0.2615,-0.2618,-0.2614,-0.2614,-0.2614,-0.2614,-0.2614,0,-0.2429,-0.244,-0.2451,-0.2468,-0.2477,-0.2486,-0.25,-0.2507,-0.2517,-0.253,-0.2541,-0.2555,-0.2567,-0.2582,-0.2595,-0.26,-0.2604,-0.2603,-0.2603,-0.2605,-0.2611,-0.2609,-0.2598,-0.2598,-0.2598,-0.2598,-0.2598,-0.2598,-0.2425,-0.2435,-0.2444,-0.246,-0.2471,-0.2483,-0.249,-0.25,-0.2511,-0.2526,-0.2536,-0.2546,-0.256,-0.2575,-0.2586,-0.259,-0.2595,-0.2592,-0.2597,-0.2603,-0.2604,-0.2606,-0.2604,-0.2592,-0.2592,-0.259,-0.259,-0.259]}]]